Location: La Fredeussais
(48.1780°N, 1.3980°W)
Time: 08:14:30
(UTC+00:00)

STARLINK-2758 - Pass Details

Date: 30 July 2021
Orbit: 546 x 548 km, 53.1° (Epoch: 19 September)

Event Time Altitude Azimuth Distance (km) Brightness Sun altitude
Rises 20:31:41 0° 292° (WNW) 2,719 9.0 -7.4°
Reaches altitude 10° 20:34:10 10° 280° (W) 1,821 7.4 -7.7°
Maximum altitude 20:37:37 26° 224° (SW) 1,107 5.2 -8.1°
Drops below altitude 10° 20:41:02 10° 167° (SSE) 1,811 5.8 -8.6°
Enters shadow 20:41:41 - 163° (SSE) 2,029 6.0 -8.7°
